{"data":{"norad_id":63191,"epoch":"2026-09-21T21:55:23.272320Z","epoch_age_seconds":40031,"freshness":"FRESH","line1":"1 63191U 25048J   26264.91346380  .00203346  00000+0  15456-2 0  9993","line2":"2 63191  42.9998 216.9798 0001552 246.6331 113.4374 15.70904318 89382","mean_motion":15.70904318,"eccentricity":0.0001552,"inclination_deg":42.9998,"raan_deg":216.9798,"arg_perigee_deg":246.6331,"mean_anomaly_deg":113.4374,"bstar":0.0015456,"rev_number":8938,"period_min":91.66694517928,"perigee_km":355.26604859348,"apogee_km":357.35642132561,"semimajor_km":6734.4482349595,"source":"CELESTRAK","updated_at":"2026-09-22T09:00:49.796100Z"}}